Weather in Higüey

Dominican Republic     18°36′50″N   68°42′51″W
temp.,
°C
wind,
m/s
gust,
m/s
humid.,
%
clouds,
%
prec.,
mm/h
press.,
hPa
HPBL,
m
8 december, wed
wed823:00+22ne39840 0.0 1017200
02:00+22ne36850 0.0 1016110
05:00+22ene37865 0.0 1015143
08:00+24ne39750 0.0 1017372
11:00+29ene67520 0.0 10181552
14:00+30ene665343 0.0 10151738
17:00+27ene56675 0.1 1015964
20:00+22ne39880 0.1 1017220
9 december, thu
thu923:00+22ene399333 0.2 1017206
02:00+22ne37931 0.8 1016161
05:00+21ne33910 0.0 101655
08:00+22ne38870 0.0 1018208
11:00+29ne67530 0.0 10181390
14:00+30ne775317 0.0 10151744
17:00+27ne67681 0.1 10151011
20:00+23ne410870 0.1 1016276
10 december, fri
fri1023:00+22nne38911 0.0 1017183
02:00+22ne37910 0.1 1016158
05:00+21ne34931 0.0 101567
08:00+24ne49845 0.1 1016472
11:00+27ene796924 0.4 10171112
14:00+28ene78626 1.7 10141354
17:00+27ne79660 0.2 10141190
20:00+23ne410800 0.2 1015351
11 december, sat
sat1123:00+23ne410880 0.0 1016261
02:00+22ne410901 0.1 1014279
05:00+22ne399217 0.1 1014209
08:00+24ne410867 0.3 1015484
11:00+29ene810608 0.2 10161419
14:00+29ene79569 0.4 10131581
17:00+27ne79672 0.1 10121080
20:00+24ne511830 0.1 1014475
12 december, sun
sun1223:00+23ene410840 0.0 1015398
02:00+22ene410910 0.1 1014278
05:00+22ene39921 0.1 1014226
08:00+24ene410860 0.4 1016474
11:00+29ene796116 0.1 10161286
14:00+29ene786010 0.5 10141413
17:00+26ne797015 0.1 1014997
20:00+23ne411880 0.1 1015362